TimeCST,TemperatureF,Dew PointF,Humidity,Sea Level PressureIn,VisibilityMPH,Wind Direction,Wind SpeedMPH,Gust SpeedMPH,PrecipitationIn,Events,Conditions,WindDirDegrees,DateUTC
12:09 AM,24.1,21.9,91,29.73,1.0,North,9.2,-,N/A,,Mist,360,2013-12-22 06:09:00
12:26 AM,24.1,21.9,91,29.73,1.5,North,11.5,-,N/A,,Overcast,360,2013-12-22 06:26:00
12:42 AM,24.1,21.9,91,29.73,1.0,North,13.8,-,N/A,,Mist,360,2013-12-22 06:42:00
12:51 AM,24.8,21.2,86,29.73,0.8,North,12.7,-,N/A,,Mist,360,2013-12-22 06:51:00
12:52 AM,24.1,21.9,91,29.78,0.8,North,12.7,-,N/A,,Mist,360,2013-12-22 06:52:00
1:53 AM,24.1,21.9,91,29.77,0.5,North,13.8,-,0.07,Fog-Snow,Snow,360,2013-12-22 07:53:00
2:53 AM,24.1,21.9,91,29.78,0.5,North,15.0,-,0.07,Fog-Snow,Snow,350,2013-12-22 08:53:00
3:53 AM,24.1,21.0,88,29.82,0.8,North,16.1,-,0.05,Snow,Light Snow,350,2013-12-22 09:53:00
4:17 AM,24.1,21.0,88,29.79,1.0,North,13.8,21.9,0.02,Snow,Light Snow,350,2013-12-22 10:17:00
4:35 AM,23.0,19.9,88,29.79,0.8,North,13.8,-,0.03,Snow,Light Snow,350,2013-12-22 10:35:00
4:50 AM,23.0,19.4,86,29.80,1.2,North,16.1,-,0.03,Snow,Light Snow,360,2013-12-22 10:50:00
4:53 AM,23.0,19.9,88,29.85,1.2,North,15.0,-,0.07,Snow,Light Snow,350,2013-12-22 10:53:00
5:14 AM,23.0,19.9,88,29.81,1.5,North,16.1,-,0.00,Snow,Light Snow,350,2013-12-22 11:14:00
5:30 AM,21.9,19.9,92,29.81,2.0,North,13.8,-,0.01,Snow,Light Snow,350,2013-12-22 11:30:00
5:53 AM,21.9,19.0,89,29.88,2.5,North,13.8,-,0.01,Snow,Light Snow,350,2013-12-22 11:53:00
6:01 AM,21.9,19.0,89,29.83,3.0,North,15.0,-,0.00,Snow,Light Snow,350,2013-12-22 12:01:00
6:53 AM,21.0,18.0,88,29.92,6.0,NNW,16.1,-,0.00,Snow,Light Snow,340,2013-12-22 12:53:00
7:53 AM,19.0,15.1,85,29.98,7.0,NNW,16.1,-,0.00,,Scattered Clouds,330,2013-12-22 13:53:00
8:07 AM,18.0,15.1,88,29.92,7.0,NNW,15.0,-,0.00,,Mostly Cloudy,330,2013-12-22 14:07:00
8:53 AM,18.0,14.0,84,30.01,8.0,North,19.6,27.6,0.00,,Overcast,350,2013-12-22 14:53:00
9:53 AM,19.0,14.0,81,30.04,8.0,NNW,21.9,28.8,N/A,,Overcast,330,2013-12-22 15:53:00
10:53 AM,19.9,14.0,78,30.08,10.0,North,11.5,-,N/A,,Overcast,350,2013-12-22 16:53:00
11:22 AM,19.9,14.0,78,30.04,10.0,NNW,13.8,-,N/A,,Overcast,340,2013-12-22 17:22:00
11:53 AM,19.9,15.1,81,30.09,10.0,NW,11.5,-,N/A,,Overcast,320,2013-12-22 17:53:00
12:53 PM,21.0,15.1,78,30.09,9.0,NW,18.4,-,N/A,,Overcast,320,2013-12-22 18:53:00
1:53 PM,19.9,12.9,74,30.11,10.0,NW,15.0,-,0.00,,Overcast,310,2013-12-22 19:53:00
2:53 PM,19.0,12.0,74,30.14,10.0,NW,16.1,-,N/A,,Scattered Clouds,310,2013-12-22 20:53:00
3:53 PM,17.1,10.0,74,30.17,10.0,NW,17.3,-,N/A,,Clear,310,2013-12-22 21:53:00
4:53 PM,14.0,8.1,77,30.21,10.0,NW,11.5,-,N/A,,Clear,310,2013-12-22 22:53:00
5:53 PM,10.9,6.1,81,30.24,10.0,WNW,8.1,-,N/A,,Clear,300,2013-12-22 23:53:00
6:53 PM,9.0,3.9,80,30.27,10.0,WNW,9.2,-,N/A,,Clear,300,2013-12-23 00:53:00
7:53 PM,7.0,3.0,84,30.30,10.0,West,6.9,-,N/A,,Clear,280,2013-12-23 01:53:00
8:53 PM,6.1,1.9,83,30.31,10.0,WNW,9.2,-,N/A,,Clear,300,2013-12-23 02:53:00
9:53 PM,6.1,1.0,80,30.35,10.0,NW,8.1,-,N/A,,Clear,310,2013-12-23 03:53:00
10:53 PM,3.9,-0.9,80,30.37,10.0,NW,9.2,-,N/A,,Clear,320,2013-12-23 04:53:00
11:53 PM,3.9,-0.9,80,30.39,10.0,NW,9.2,-,N/A,,Clear,320,2013-12-23 05:53:00